Flight Track Log - Related Links

Times and Time Zones

All times are in EDT time to prevent confusion due to time zone crossing. See the KAP927 flight status page for this flight to view local times or setup timezone preferences in your user account.

Time Position Orientation Groundspeed Altitude Reporting Facility
EDT Latitude Longitude Course Direction KTS MPH feet Rate Location/Type
06:30PM 42.7169 -73.8275 325° Northwest 118 136 1,400  Level Boston Center
06:31PM 42.7439 -73.8536 325° Northwest 131 151 1,800 393 Climbing Boston Center
06:32PM 42.7747 -73.8769 331° Northwest 139 160 2,200 522 Climbing Boston Center
06:33PM 42.8036 -73.9089 321° Northwest 137 158 2,800 574 Climbing Boston Center
06:34PM 42.8367 -73.9322 333° Northwest 134 154 3,300 516 Climbing Boston Center
06:35PM 42.8739 -73.9586 333° Northwest 135 155 3,900 496 Climbing Boston Center
06:36PM 42.9089 -73.9906 326° Northwest 137 158 4,400 520 Climbing Boston Center
06:37PM 42.9439 -74.0200 328° Northwest 139 160 5,000 541 Climbing Boston Center
06:38PM 42.9767 -74.0464 330° Northwest 136 157 5,500 496 Climbing Boston Center
06:39PM 43.0097 -74.0728 330° Northwest 137 158 6,000 545 Climbing Boston Center
06:40PM 43.0428 -74.0992 330° Northwest 140 161 6,600 541 Climbing Boston Center
06:41PM 43.0756 -74.1286 327° Northwest 143 165 7,100 522 Climbing Boston Center
06:42PM 43.1064 -74.1578 325° Northwest 143 165 7,600 574 Climbing Boston Center
06:43PM 43.1417 -74.1817 334° Northwest 138 159 8,200 587 Climbing Boston Center
06:44PM 43.1558 -74.1933 329° Northwest 150 173 8,500 527 Climbing Boston Center
06:45PM 43.1889 -74.2169 332° Northwest 150 173 9,000 500 Climbing Boston Center
06:46PM 43.2219 -74.2464 327° Northwest 140 161 9,500 450 Climbing Boston Center
06:47PM 43.2547 -74.2731 329° Northwest 140 161 9,900 450 Climbing Boston Center
06:48PM 43.2917 -74.3028 330° Northwest 140 161 10,400 350 Climbing Boston Center
06:49PM 43.3247 -74.3294 330° Northwest 140 161 10,600 100 Climbing Boston Center
06:50PM 43.3678 -74.3650 329° Northwest 158 182 10,600 -50 Level Boston Center
06:51PM 43.4092 -74.3950 332° Northwest 169 194 10,500 -100 Descending Boston Center
06:52PM 43.4481 -74.4278 329° Northwest 169 194 10,400  Descending Boston Center
06:53PM 43.4872 -74.4606 329° Northwest 163 188 10,500 45 Climbing Boston Center
06:54PM 43.5281 -74.4933 330° Northwest 163 188 10,500  Level Boston Center
06:55PM 43.5733 -74.5322 328° Northwest 163 188 10,500 -50 Level Boston Center
06:56PM 43.6144 -74.5650 330° Northwest 163 188 10,400  Descending Boston Center
06:57PM 43.6533 -74.5981 328° Northwest 163 188 10,500 50 Climbing Boston Center
06:58PM 43.6925 -74.6311 329° Northwest 163 188 10,500 50 Level Boston Center
06:59PM 43.7333 -74.6611 332° Northwest 163 188 10,600 50 Climbing Boston Center
07:00PM 43.7703 -74.6969 325° Northwest 163 188 10,600 -50 Level Boston Center
07:01PM 43.8114 -74.7303 330° Northwest 163 188 10,500 -50 Descending Boston Center
07:02PM 43.8503 -74.7633 328° Northwest 163 188 10,500  Level Boston Center
07:03PM 43.8892 -74.7967 328° Northwest 163 188 10,500 -250 Level Boston Center
07:04PM 43.9322 -74.8300 331° Northwest 169 194 10,000 -500 Descending Boston Center
07:05PM 43.9775 -74.8636 332° Northwest 169 194 9,500 -500 Descending Boston Center
07:06PM 44.0247 -74.8972 333° Northwest 181 208 9,000 -550 Descending Boston Center
07:07PM 44.0675 -74.9336 329° Northwest 181 208 8,400 -550 Descending Boston Center
07:08PM 44.1103 -74.9761 325° Northwest 181 208 7,900 -500 Descending Boston Center
07:09PM 44.1556 -75.0125 330° Northwest 186 214 7,400 -550 Descending Boston Center
07:10PM 44.2006 -75.0494 330° Northwest 186 214 6,800 -650 Descending Boston Center
07:11PM 44.2456 -75.0889 328° Northwest 186 214 6,100 -650 Descending Boston Center
07:12PM 44.2906 -75.1228 332° Northwest 186 214 5,500 -650 Descending Boston Center
07:13PM 44.3353 -75.1628 327° Northwest 186 214 4,800 -700 Descending Boston Center
07:14PM 44.3822 -75.2056 327° Northwest 192 221 4,100 -650 Descending Boston Center
07:15PM 44.4253 -75.2425 329° Northwest 192 221 3,500 -550 Descending Boston Center
07:16PM 44.4597 -75.2731 328° Northwest 187 215 3,000 -500 Descending Boston Center

Login

Don't have an account? Register now (free) for customized features, flight alerts, and more!